Date,TemperatureHighF,TemperatureAvgF,TemperatureLowF,DewpointHighF,DewpointAvgF,DewpointLowF,HumidityHigh,HumidityAvg,HumidityLow,PressureMaxIn,PressureMinIn,WindSpeedMaxMPH,WindSpeedAvgMPH,GustSpeedMaxMPH,PrecipitationSumIn
2012-12-1,81.3,71.9,64.8,65.5,59.3,54.1,94,68,40,31.01,29.53,0,0,0,0.00
2012-12-2,82.2,72.9,67.8,64.2,58.6,52.7,83,63,39,29.59,29.59,0,0,0,0.00
2012-12-3,79.7,71.3,65.7,60.4,56.3,52.8,82,61,40,29.59,29.59,0,0,0,0.00
2012-12-4,71.8,64.3,53.2,58.0,38.9,23.5,79,42,19,29.59,29.59,0,0,0,0.00
2012-12-5,65.7,55.4,45.0,46.2,36.3,24.1,74,49,32,29.59,29.59,0,0,0,0.00
2012-12-6,69.3,60.5,50.9,53.4,47.3,42.3,91,64,41,29.59,29.59,0,0,0,0.00
2012-12-7,72.0,62.0,54.3,54.4,47.2,38.9,84,60,37,29.59,29.59,0,0,0,0.00
2012-12-8,70.5,60.8,54.0,54.6,48.4,43.8,81,65,44,29.59,29.59,0,0,0,0.00
2012-12-9,68.9,59.9,41.5,65.8,48.5,12.4,97,69,30,29.59,29.59,0,0,0,0.00
2012-12-10,46.9,38.2,32.0,23.9,14.1,8.3,70,38,29,29.59,29.59,0,0,0,0.00
2012-12-11,49.5,37.7,27.7,20.2,12.8,4.1,60,38,16,29.59,29.59,0,0,0,0.00
2012-12-12,58.1,43.7,28.6,23.7,17.1,12.0,55,36,22,29.59,0.00,0,0,0,0.00
2012-12-13,64.8,52.2,38.1,28.6,21.1,14.7,44,30,24,0.00,0.00,0,0,0,0.00
2012-12-14,65.1,58.2,53.1,59.5,40.8,20.5,93,56,27,0.00,0.00,0,0,0,0.20
2012-12-15,72.3,62.6,54.5,59.5,39.7,23.1,94,50,16,0.00,0.00,0,0,0,0.00
2012-12-16,71.6,61.0,54.9,45.4,36.8,27.3,65,43,21,0.00,0.00,0,0,0,0.00
2012-12-17,63.0,53.2,45.9,36.8,32.6,27.3,65,46,34,29.38,0.00,0,0,0,0.00
2012-12-18,76.3,58.4,44.1,39.8,29.2,19.6,62,37,13,29.29,29.18,0,0,0,0.00
2012-12-19,77.9,69.7,58.1,62.6,53.6,15.2,89,61,15,29.29,29.00,0,0,0,0.04
2012-12-20,58.1,45.9,37.0,26.0,13.0,2.1,41,28,13,29.88,29.29,0,0,0,0.00
2012-12-21,64.4,46.8,31.8,17.1,12.4,8.1,45,27,13,29.91,29.74,0,0,0,0.00
2012-12-22,68.0,53.1,35.6,42.5,27.2,11.9,55,37,24,29.74,29.47,0,0,0,0.00
2012-12-23,66.4,58.5,47.5,52.0,35.5,16.2,83,47,16,29.47,29.29,0,0,0,0.00
2012-12-24,54.5,45.4,35.8,28.1,23.4,19.8,52,42,30,29.50,29.23,0,0,0,0.00
2012-12-25,48.7,39.2,29.8,45.6,32.4,18.8,93,77,43,29.62,29.06,0,0,0,1.02
2012-12-26,44.2,30.0,23.5,31.1,15.5,10.6,63,54,41,29.74,29.59,0,0,0,0.00
2012-12-27,48.7,38.0,28.8,44.3,28.9,17.8,87,70,58,29.59,29.32,0,0,0,0.00
2012-12-28,45.5,40.0,33.6,41.9,31.5,17.6,92,73,51,29.68,29.32,0,0,0,0.00
2012-12-29,46.4,36.4,29.8,21.9,18.2,14.3,60,48,34,29.88,29.68,0,0,0,0.00
2012-12-30,50.2,40.6,30.0,28.2,21.0,18.4,70,47,29,29.91,29.68,0,0,0,0.00
2012-12-31,50.9,46.5,41.0,47.6,40.6,22.2,92,81,41,29.68,29.41,0,0,0,0.20